Location: El Bakhil
(32.7726°N, 5.5387°W)
Time: 12:17:38
(UTC+00:00)

Cosmos 2360 Rocket - Pass Details

Date: 03 March 2021
Orbit: 832 x 846 km, 71.0° (Epoch: 16 April)

Event Time Altitude Azimuth Distance (km) Brightness Sun altitude
Rises 20:16:56 0° 234° (SW) 3,374 6.0 -25.1°
Reaches altitude 10° 20:19:53 10° 249° (WSW) 2,446 5.4 -25.7°
Maximum altitude 20:24:13 22° 300° (WNW) 1,736 4.5 -26.6°
Drops below altitude 10° 20:28:34 10° 351° (N) 2,462 4.8 -27.5°
Sets 20:31:35 0° 6° (N) 3,403 5.4 -28.1°
